Regional Weather Roundup
Issued by NWS

Home | Current Version | Previous Version | Text Only | Print | Product List | Glossary On
Versions: 1 2 3 4 5 6 7 8 9 10 11 12 13 14 15 16 17 18 19 20 21 22 23 24 25 26 27 28 29 30 31 32 33 34 35 36 37 38 39 40 41 42 43 44 45 46 47 48 49 50
000
ASUS43 KFSD 280210
RWRSD

WEATHER ROUNDUP FOR SOUTH DAKOTA
NATIONAL WEATHER SERVICE SIOUX FALLS SD
900 PM CDT THU APR 27 2017

NOTE: "FAIR" INDICATES FEW OR NO CLOUDS BELOW 12,000 FEET WITH NO
SIGNIFICANT WEATHER AND/OR OBSTRUCTIONS TO VISIBILITY.


SDZ001>005-009-010-012>017-280300-
NORTHWEST AND NORTH CENTRAL SOUTH DAKOTA

CITY           SKY/WX    TMP DP  RH WIND       PRES   REMARKS
BUFFALO          N/A     42  27  55 E13       29.65R
FAITH            N/A     40  31  70 S9        29.72R
MOBRIDGE       CLEAR     42  23  46 NE8       29.72R
$$

SDZ012>016-024>037-041>051-057-063-072>074-280300-
SOUTHWEST AND SOUTH CENTRAL SOUTH DAKOTA

CITY           SKY/WX    TMP DP  RH WIND       PRES   REMARKS
RAPID CTY ARPT CLOUDY    43  32  65 E10       29.69R
PIERRE         PTCLDY    40  31  70 N8        29.72R
CUSTER         LGT SNOW  31  28  89 NE10      29.64R FOG     WCI  22
ELLSWORTH AFB  CLOUDY    43  32  64 E9        29.69R
PHILIP         PTCLDY    41  33  73 NE8       29.71R
PINE RIDGE     LGT RAIN  43  40  89 E10       29.65R
SPEARFISH      CLOUDY    39  32  75 E12       29.68R
WINNER         FAIR      44  32  62 E6        29.71R
$$

SDZ004>011-016>023-039-040-280300-
NORTHEAST SOUTH DAKOTA

CITY           SKY/WX    TMP DP  RH WIND       PRES   REMARKS
ABERDEEN       CLEAR     42  29  59 N3        29.75R
WATERTOWN      CLOUDY    40  30  67 N7        29.74R
BROOKINGS      CLEAR     37  27  67 NE7       29.77R
SISSETON         N/A     38  32  79 S5        29.74R
$$

SDZ017-020-022-023-036>040-048>070-280300-
SOUTHEAST SOUTH DAKOTA

CITY           SKY/WX    TMP DP  RH WIND       PRES   REMARKS
SIOUX FALLS    PTCLDY    39  31  72 NE7       29.77R
HURON          CLEAR     40  29  64 E5        29.77R
CHAMBERLAIN    CLEAR     47  33  58 CALM      29.74R
MITCHELL       CLEAR     41  30  65 N6        29.78R
YANKTON        CLEAR     46  30  53 N3        29.75R
$$

ABBREVIATIONS USED IN REMARKS
   TC - TEMPERATURE IN CELSIUS
  WCI - WIND CHILL INDEX
   HX - HEAT INDEX
  VSB - VISIBILITY





USA.gov is the U.S. government's official web portal to all federal, state and local government web resources and services.